Terminal Aerodrome Forecast
Issued by NWS

Home | Current Version | Previous Version | Text Only | Print | Product List | Glossary On
Versions: 1 2 3 4 5 6 7 8 9 10 11 12 13 14 15
841
FTUS44 KJAN 281301 AAA
TAFHKS
TAF AMD
KHKS 281301Z 2813/2912 15009KT P6SM BKN015 BKN200
     FM281500 16010KT P6SM SCT025 BKN200
     FM281700 16010KT P6SM VCTS SCT030 BKN050CB
     FM290100 16003KT P6SM FEW050 BKN250
     FM291000 VRB03KT 5SM BR FEW009=

USA.gov is the U.S. government's official web portal to all federal, state and local government web resources and services.